Home > Weather > Barra do Garças > Past weeks

Flag for Brazil Past Weather in Barra do Garças, Mato Grosso, Brazil — Yesterday and Last 2 Weeks

Now
61 °F

Sunny.


Feels Like: 61 °F
Forecast: 65 / 94 °F
Wind: No wind

Location: Goiania Aeroporto

Current Time: May 31, 2016 at 7:23:52 AM

Latest Report: May 31, 2016 at 7:00 AM


Visibility: 10 mi

Pressure: 30.07 "Hg

Humidity: 88%

Dew Point: 57 °F

Location of Barra do GarçasLocation

Past Weather in Barra do Garças — Graph

°F

Barra do Garças Temperature Yesterday

Maximum temperature yesterday: 88 °F (at 2:00 PM)
Minimum temperature yesterday: 61 °F (at 3:00 AM)
Average temperature yesterday: 73 °F

High & Low Weather Summary for the Past Weeks

 TemperatureHumidityPressure
High90 °F (May 16, 1:00 PM)100% (May 16, 6:00 PM)30.27 "Hg (May 16, 6:00 PM)
Low34 °F (May 16, 6:00 PM)25% (May 30, 3:00 PM)29.92 "Hg (May 30, 1:00 PM)
Average74 °F62%30.11 "Hg
* Reported May 16 6:00 AM — May 31 6:00 AM, Barra do Garças, Weather by CustomWeather, © 2016

Note: Actual official high and low records may vary slightly from our data, if they occured in-between our weather recording intervals... More about our weather records

Advertising

Barra do Garças Weather History for the Previous 24 Hours

Scroll right to see more
 ConditionsComfort  
Time TempWeatherWind HumidityBarometerVisibility
6:00 AM
Tue, May 31
61 °FClear.No wind88%30.04 "Hg10 mi
5:00 AM61 °FClear.No wind88%30.04 "Hg10 mi
4:00 AM63 °FClear.No wind83%30.04 "Hg10 mi
3:00 AM63 °FClear.No wind88%30.01 "Hg10 mi
2:00 AM64 °FClear.No wind83%30.04 "Hg10 mi
1:00 AM63 °FClear.3 mph88%30.04 "Hg10 mi
12:00 AM66 °FClear.6 mph78%30.04 "Hg10 mi
11:00 PM
Mon, May 30
66 °FClear.6 mph78%30.04 "Hg10 mi
10:00 PM66 °FClear.5 mph78%30.04 "Hg10 mi
9:00 PM72 °FClear.No wind61%30.04 "Hg10 mi
8:00 PM73 °FClear.2 mph61%30.01 "Hg10 mi
7:00 PM79 °FClear.No wind45%29.98 "Hg10 mi
6:00 PM82 °FClear.3 mph35%29.98 "Hg10 mi
5:00 PM86 °FPassing clouds.3 mph27%29.98 "HgN/A
4:00 PM88 °FPassing clouds.6 mph27%29.98 "HgN/A
3:00 PM88 °FPassing clouds.8 mph25%29.98 "HgN/A
2:00 PM88 °FPassing clouds.10 mph27%29.98 "HgN/A
1:00 PM86 °FPassing clouds.7 mph31%29.92 "HgN/A
12:00 PM84 °FSunny.10 mph33%30.04 "Hg10 mi
11:00 AM82 °FSunny.9 mph35%30.07 "Hg10 mi
10:00 AM77 °FSunny.8 mph44%30.09 "Hg10 mi
9:00 AM70 °FSunny.2 mph64%30.09 "Hg10 mi
8:00 AM66 °FSunny.No wind73%30.09 "Hg10 mi
7:00 AM61 °FSunny.5 mph83%30.07 "Hg10 mi
Weather by CustomWeather, © 2016

See weather overviewHow to use our weather pages